Regional Weather Roundup
Issued by NWS

Home | Current Version | Previous Version | Graphics & Text | Print | Product List | Glossary On
Versions: 1 2 3 4 5 6 7 8 9 10 11 12 13 14 15 16 17 18 19 20 21 22 23 24 25 26 27 28 29 30 31 32 33 34 35 36 37 38 39 40 41 42 43 44 45 46 47 48 49 50
000
ASUS43 KIND 111859
RWRIN

WEATHER ROUNDUP FOR INDIANA
NATIONAL WEATHER SERVICE INDIANAPOLIS IN
200 PM EST THU FEB 11 2016

NOTE: "FAIR" INDICATES FEW OR NO CLOUDS BELOW 12,000 FEET WITH NO
SIGNIFICANT WEATHER AND/OR OBSTRUCTIONS TO VISIBILITY.

* - STATION DOES NOT REPORT WEATHER SUCH AS PRECIPITATION OR FOG.

+ - STATION NOT QUALITY CONTROLLED BY THE NATIONAL WEATHER SERVICE.
    USE DATA WITH CAUTION...ESPECIALLY DEWPOINT AND RELATIVE
    HUMIDITY OBSERVATIONS.

INZ001>003-010>013-019-020-112000-
NORTHWEST INDIANA

CITY           SKY/WX    TMP DP  RH WIND       PRES   REMARKS
GARY /AIRPORT/ MOSUNNY   21   5  49 NW7       30.32  WCI  13
MONTICELLO +   MOSUNNY   21   4  47 W5        30.29S WCI  15
RENSSELAER +   SUNNY     23   0  36 W8        30.30S WCI  14

$$

LMZ046-743>745-112000-
SOUTHERN LAKE MICHIGAN

STATION/POSITION TIME  TEMP    WIND        PRES    WAVE
                       AIR SEA DIR/SP/G            HT
                 (UTC) (F)     (DEG/KT/KT) (MB)    (FT)
BURNS HARBOR     1800   18     300/ 13/ 17 1026.4F
MICHIGAN CITY    1800   19     280/ 17/ 19   N/A

$$

INZ004-005-014>016-021>024-112000-
NORTH CENTRAL INDIANA

CITY           SKY/WX    TMP DP  RH WIND       PRES   REMARKS
ELKHART        CLOUDY    21   9  58 NW9       30.25F WCI  11
GOSHEN         LGT SNOW  20  12  71 W12       30.24F WCI   8
SOUTH BEND     PTSUNNY   21  11  65 W14       30.26S WCI   8

$$

INZ006>009-017-018-025>027-112000-
NORTHEAST INDIANA

CITY           SKY/WX    TMP DP  RH WIND       PRES   REMARKS
ANGOLA *+      CLOUDY    19  10  68 NW3       30.22S
FORT WAYNE     PTSUNNY   24   6  46 W14       30.26S WCI  12

$$

INZ028-029-035-036-043>045-051>053-112000-
WEST CENTRAL INDIANA

CITY           SKY/WX    TMP DP  RH WIND       PRES   REMARKS
GREENCASTLE +  SUNNY     21   0  39 CALM      30.29S
LAFAYETTE      SUNNY     23   5  46 VRB3      30.30F
TERRE HAUTE    SUNNY     23   6  48 VRB5      30.31F WCI  17

$$

INZ030>032-037>040-046>048-054>057-064-065-112000-
CENTRAL INDIANA

CITY           SKY/WX    TMP DP  RH WIND       PRES   REMARKS
COLUMBUS       SUNNY     21  10  63 CALM      30.29F
FRANKFORT +    MOSUNNY   25  -1  33 W8        30.29S WCI  16
INDIANAPOLIS   MOSUNNY   23   8  52 VRB5      30.27F WCI  17
-EAGLE CREEK   SUNNY     22   7  52 N5        30.27F WCI  16
KOKOMO *+      MOSUNNY   21   7  53 NW8       30.27S WCI  12
MT COMFORT *+  MOSUNNY   21   7  53 CALM      30.27F
SHELBYVILLE    MOSUNNY   21   7  54 CALM      30.28F

$$

INZ033-034-041-042-049-050-058-059-112000-
EAST CENTRAL INDIANA

CITY           SKY/WX    TMP DP  RH WIND       PRES   REMARKS
MUNCIE         MOSUNNY   20   8  60 NW10      30.26S WCI   9

$$

INZ060-061-067>069-081>083-085>088-112000-
SOUTHWEST INDIANA

CITY           SKY/WX    TMP DP  RH WIND       PRES   REMARKS
EVANSVILLE     SUNNY     31  13  47 N6        30.30F WCI  25
HUNTINGBURG *+ SUNNY     28  12  50 N7        30.29F WCI  21

$$

INZ062-063-066-070>080-084-089>092-112000-
SOUTH CENTRAL AND SOUTHEAST INDIANA

CITY           SKY/WX    TMP DP  RH WIND       PRES   REMARKS
BLOOMINGTON    SUNNY     24   8  50 N7        30.27F WCI  16
MADISON *+     SUNNY     27   9  46 NE5       30.28F WCI  21
SEYMOUR +      SUNNY     28  10  47 N5        30.29F WCI  23

$$




USA.gov is the U.S. government's official web portal to all federal, state and local government web resources and services.